[[{"header":{"parameterUnit":"m.s-1","parameterCategory":1,"la1":30.2991,"la2":30.254,"lo1":-89.0895,"lo2":-89.0444,"dy":0.0017,"dx":0.0017,"nx":28,"ny":28,"refTime":"2025-04-22T21:00:00:Z","depth":0,"parameterNumber":2,"parameterNumberName":"U-component_of_WINDS"},"data":[0,0,0,0,0,0,0,0,0,0,0,0,0,0,0,0,0,0,0,0,0,0,0,0,0,0,0,0,0,0,0,0,0,0,0,0,0,0,0,0,0,0,0,0,0,0,0,0,0,0,0,0,0,0,0,0,0,0,-1.5647,-1.5647,0,-1.5651,-1.5651,-1.5651,-1.56,-1.5598,-1.5597,-1.5595,-1.56,-1.5601,-1.5603,0,0,0,0,0,0,0,0,0,0,0,0,0,-1.5595,-1.5596,-1.5647,-1.5647,-1.5647,-1.5651,-1.5651,-1.5651,-1.56,-1.5598,-1.5596,-1.5595,-1.5599,-1.5601,-1.5603,0,0,0,0,0,0,0,0,0,0,0,0,0,-1.561,-1.5597,-1.5647,-1.5622,-1.562,-1.5651,-1.5651,-1.5651,-1.56,-1.5598,-1.5596,-1.5594,-1.5599,-1.5601,-1.5603,-1.5659,0,0,-1.561,-1.5611,0,0,0,0,0,0,0,0,-1.5609,-1.5612,-1.5626,-1.5624,-1.5621,-1.5623,-1.5634,-1.5654,-1.5601,-1.5608,-1.5595,-1.5593,-1.5609,-1.561,-1.5616,-1.5659,-1.5659,-1.561,-1.5611,-1.5612,-1.5613,0,0,0,0,0,0,0,-1.5608,-1.5612,-1.5649,-1.5626,-1.5623,-1.5611,-1.561,-1.5638,-1.562,-1.5607,-1.5603,-1.5604,-1.5608,-1.5614,-1.5616,-1.5659,-1.561,-1.5612,-1.5613,-1.5614,-1.5749,-1.5751,0,0,0,0,0,0,-1.5611,-1.5611,-1.5649,-1.5649,-1.561,-1.5613,-1.5613,-1.5624,-1.562,-1.5617,-1.5606,-1.5602,-1.5611,-1.5613,-1.5616,-1.5681,-1.5612,-1.5614,-1.5615,-1.5746,-1.5749,-1.5752,0,0,0,0,0,0,-1.561,-1.5615,-1.5648,-1.5629,-1.5632,-1.5616,-1.563,-1.5626,-1.5632,-1.5619,-1.5616,-1.5616,-1.561,-1.5613,-1.5648,-1.568,-1.5615,-1.5617,-1.5744,-1.5747,-1.575,-1.5811,0,0,0,0,0,0,-1.5609,-1.5615,-1.5635,-1.563,-1.5634,-1.5681,-1.5632,-1.5627,-1.5636,-1.563,-1.5627,-1.5625,-1.5608,-1.5646,-1.5651,-1.5682,-1.5619,-1.5741,-1.5745,-1.5749,-1.5806,-1.5816,-1.5825,0,0,0,0,0,-1.5607,-1.5652,-1.5637,-1.5642,-1.5659,-1.5683,-1.5685,-1.5665,-1.5638,-1.5659,-1.5651,-1.5625,-1.5676,-1.565,-1.5655,-1.5687,-1.5739,-1.5744,-1.5749,-1.5802,-1.5814,-1.5825,0,0,0,0,0,0,-1.5662,-1.5651,-1.5634,-1.5679,-1.5682,-1.5675,-1.57,-1.5679,-1.569,-1.5684,-1.5659,-1.5659,-1.5699,-1.5697,-1.5668,-1.5741,-1.5702,-1.5709,-1.5741,-1.5753,-1.5762,-1.5761,-1.5621,0,0,0,0,0,-1.568,-1.57,-1.5689,-1.573,-1.5733,-1.5716,-1.5726,-1.571,-1.5713,-1.5714,-1.5709,-1.5712,-1.5729,-1.5741,-1.5755,-1.5806,-1.5804,-1.583,-1.584,-1.5847,-1.5853,-1.588,-1.5892,-1.5768,-1.5768,-1.5768,0,0,-1.5716,-1.5712,-1.5727,-1.5741,-1.5742,-1.5764,-1.5718,-1.5743,-1.5759,-1.5718,-1.5751,-1.5748,-1.575,-1.5794,-1.5813,-1.5793,-1.5887,-1.5854,-1.586,-1.5862,-1.5887,-1.5898,-1.5909,-1.5772,-1.5771,-1.5771,0,0,-1.5793,-1.5792,-1.5826,-1.5828,-1.583,-1.5819,-1.5827,-1.5823,-1.5819,-1.5852,-1.5822,-1.5841,-1.587,-1.5873,-1.5878,-1.5957,-1.5933,-1.5963,-1.6011,-1.6037,-1.6047,-1.6056,-1.6084,-1.6094,-1.5969,-1.5969,-1.5969,0,-1.5837,-1.5869,-1.5846,-1.5873,-1.5881,-1.5845,-1.5879,-1.5882,-1.5889,-1.5895,-1.5873,-1.5909,-1.5908,-1.5952,-1.5971,-1.5977,-1.5986,-1.5963,-1.6048,-1.6056,-1.6063,-1.609,-1.6101,-1.5972,-1.5972,-1.5972,-1.5971,0,-1.5924,-1.5946,-1.5973,-1.5981,-1.5991,-1.6022,-1.6004,-1.6017,-1.6001,-1.5992,-1.6027,-1.6025,-1.6038,-1.6048,-1.6032,-1.609,-1.6077,-1.6052,-1.6013,-1.6079,-1.6104,-1.6114,-1.5977,-1.5976,-1.5975,-1.5974,0,0,-1.6035,-1.603,-1.6041,-1.6044,-1.6044,-1.6061,-1.609,-1.6103,-1.6115,-1.6121,-1.6145,-1.6171,-1.6147,-1.6154,-1.6138,-1.6161,-1.6224,-1.6132,-1.6132,-1.615,-1.6288,-1.6307,-1.6319,-1.6208,-1.621,-1.6211,-1.6287,0,-1.6111,-1.616,-1.6141,-1.6192,-1.6212,-1.6179,-1.6204,-1.6207,-1.62,-1.6216,-1.6208,-1.6227,-1.6194,-1.6198,-1.6219,-1.6212,-1.6251,-1.6206,-1.623,-1.6231,-1.6231,-1.6332,-1.6352,-1.6424,-1.6297,-1.6299,-1.63,0,-1.6205,-1.6215,-1.6268,-1.6264,-1.6272,-1.6295,-1.6306,-1.6322,-1.6325,-1.6318,-1.6325,-1.6304,-1.6333,-1.6294,-1.6333,-1.6302,-1.6311,-1.6309,-1.6311,-1.6313,-1.627,-1.6336,-1.6447,-1.6457,-1.6315,-1.6313,-1.6312,0,-1.6281,-1.6308,-1.6343,-1.6347,-1.6343,-1.6361,-1.636,-1.636,-1.637,-1.6379,-1.6385,-1.6398,-1.6406,-1.6416,-1.6399,-1.6372,-1.6441,-1.64,-1.6436,-1.6437,-1.6452,-1.6451,-1.6565,-1.6458,-1.6458,-1.6457,-1.6457,0,-1.6367,-1.6401,-1.6377,-1.6399,-1.6436,-1.6414,-1.6451,-1.6447,-1.6448,-1.6468,-1.644,-1.646,-1.6436,-1.6454,-1.6441,-1.6475,-1.6479,-1.6474,-1.647,-1.6477,-1.6477,-1.6482,-1.6477,-1.646,-1.646,-1.6459,-1.6459,0,-1.6459,-1.6444,-1.648,-1.6474,-1.6474,-1.6501,-1.6496,-1.6516,-1.6507,-1.6533,-1.6538,-1.6524,-1.6543,-1.6528,-1.6547,-1.6538,-1.6584,-1.6573,-1.6583,-1.658,-1.6617,-1.6613,-1.6738,-1.6753,-1.6636,-1.6637,-1.6638,0,-1.6514,-1.654,-1.6537,-1.6548,-1.6549,-1.6569,-1.6578,-1.6557,-1.6568,-1.6574,-1.6593,-1.661,-1.6622,-1.6655,-1.6646,-1.6661,-1.665,-1.6692,-1.6652,-1.6658,-1.6651,-1.665,-1.6652,-1.6701,-1.6702,-1.6703,-1.6704,0,-1.6615,-1.6607,-1.6622,-1.6634,-1.6647,-1.6656,-1.6662,-1.6673,-1.6652,-1.6666,-1.6686,-1.6695,-1.6715,-1.6732,-1.6743,-1.6743,-1.672,-1.6717,-1.6726,-1.6733,-1.6738,-1.6736,-1.6605,-1.6714,-1.6713,-1.6713,-1.6712,-1.6712,-1.669,-1.6712,-1.6713,-1.673,-1.6733,-1.674,-1.6759,-1.6752,-1.6768,-1.6782,-1.6769,-1.6793,-1.6795,-1.6808,-1.681,-1.6828,-1.6811,-1.6824,-1.6827,-1.6831,-1.6836,-1.6735,-1.683,-1.683,-1.683,-1.6829,-1.6829,0,-1.679,-1.6789,-1.6805,-1.6816,-1.683,-1.6807,-1.6814,-1.6827,-1.6848,-1.6852,-1.6865,-1.6887,-1.6904,-1.6897,-1.6912,-1.6928,-1.6918,-1.6932,-1.6931,-1.6931,-1.6851,-1.6842,-1.694,-1.694,-1.694,-1.694,-1.694,-1.694,-1.6843,-1.6878,-1.687,-1.6905,-1.6904,-1.6927,-1.6933,-1.6939,-1.6942,-1.6969,-1.6982,-1.6978,-1.6977,-1.6992,-1.7006,-1.7004,-1.7011,-1.7029,-1.7023,-1.6948,-1.6937,-1.6926,-1.6918,-1.7031,-1.7031,-1.7102,-1.7102,-1.7103]},{"header":{"parameterUnit":"m.s-1","parameterCategory":1,"la1":30.2991,"la2":30.254,"lo1":-89.0895,"lo2":-89.0444,"dy":0.0017,"dx":0.0017,"nx":28,"ny":28,"refTime":"2025-04-22T21:00:00:Z","depth":0,"parameterNumber":3,"parameterNumberName":"V-component_of_WINDS"},"data":[0,0,0,0,0,0,0,0,0,0,0,0,0,0,0,0,0,0,0,0,0,0,0,0,0,0,0,0,0,0,0,0,0,0,0,0,0,0,0,0,0,0,0,0,0,0,0,0,0,0,0,0,0,0,0,0,0,0,-0.3779,-0.3779,0,-0.3799,-0.3799,-0.3799,-0.3823,-0.3824,-0.3824,-0.3825,-0.3845,-0.3845,-0.3845,0,0,0,0,0,0,0,0,0,0,0,0,0,-0.3763,-0.3763,-0.3779,-0.3779,-0.378,-0.3799,-0.3799,-0.3799,-0.3823,-0.3824,-0.3824,-0.3825,-0.3845,-0.3845,-0.3845,0,0,0,0,0,0,0,0,0,0,0,0,0,-0.3775,-0.3763,-0.3779,-0.3794,-0.3796,-0.3798,-0.3799,-0.3799,-0.3823,-0.3824,-0.3824,-0.3825,-0.3845,-0.3845,-0.3845,-0.3835,0,0,-0.3846,-0.3846,0,0,0,0,0,0,0,0,-0.3774,-0.3776,-0.3792,-0.3793,-0.3795,-0.3809,-0.3801,-0.3811,-0.3823,-0.3813,-0.3825,-0.3825,-0.3833,-0.3834,-0.3836,-0.3836,-0.3837,-0.3846,-0.3846,-0.3846,-0.3846,0,0,0,0,0,0,0,-0.3773,-0.3775,-0.3787,-0.3792,-0.3794,-0.38,-0.3802,-0.3803,-0.3819,-0.3814,-0.3816,-0.3817,-0.3834,-0.3836,-0.3837,-0.3837,-0.3846,-0.3846,-0.3847,-0.3847,-0.3829,-0.3829,0,0,0,0,0,0,-0.377,-0.3774,-0.3786,-0.3787,-0.3786,-0.38,-0.3802,-0.3804,-0.3819,-0.3822,-0.3817,-0.3819,-0.3835,-0.3837,-0.3838,-0.3827,-0.3846,-0.3847,-0.3847,-0.383,-0.3829,-0.3829,0,0,0,0,0,0,-0.377,-0.3771,-0.3785,-0.3781,-0.3784,-0.3799,-0.3801,-0.3804,-0.3806,-0.3822,-0.3825,-0.3816,-0.3836,-0.3837,-0.3835,-0.3828,-0.3847,-0.3847,-0.3831,-0.383,-0.3829,-0.3804,0,0,0,0,0,0,-0.3769,-0.3771,-0.3767,-0.3781,-0.3784,-0.3783,-0.3801,-0.3804,-0.3807,-0.3809,-0.3822,-0.3825,-0.3836,-0.3835,-0.3836,-0.3828,-0.3847,-0.3831,-0.383,-0.3829,-0.3806,-0.3803,-0.38,0,0,0,0,0,-0.3769,-0.376,-0.3767,-0.3768,-0.3779,-0.3782,-0.3784,-0.3797,-0.3806,-0.3802,-0.3812,-0.3824,-0.3828,-0.3835,-0.3836,-0.3828,-0.3832,-0.3831,-0.3829,-0.3807,-0.3803,-0.38,0,0,0,0,0,0,-0.3745,-0.3762,-0.377,-0.3765,-0.3772,-0.3786,-0.3782,-0.3793,-0.3797,-0.3799,-0.3816,-0.3819,-0.3815,-0.3821,-0.3828,-0.3819,-0.3832,-0.3831,-0.3815,-0.3811,-0.3808,-0.3807,-0.3847,0,0,0,0,0,-0.3739,-0.374,-0.3755,-0.3749,-0.3752,-0.3767,-0.3768,-0.3778,-0.3786,-0.3789,-0.3799,-0.3806,-0.3809,-0.381,-0.3814,-0.3807,-0.381,-0.3802,-0.3799,-0.3797,-0.3795,-0.3792,-0.3788,-0.3824,-0.3824,-0.3824,0,0,-0.3728,-0.3737,-0.3736,-0.3745,-0.3751,-0.3752,-0.3769,-0.3769,-0.3769,-0.3789,-0.3788,-0.3795,-0.3804,-0.3799,-0.3798,-0.3805,-0.3786,-0.3795,-0.3793,-0.3793,-0.379,-0.3787,-0.3784,-0.3823,-0.3823,-0.3823,0,0,-0.3706,-0.3713,-0.3709,-0.3715,-0.3725,-0.3734,-0.3733,-0.3746,-0.3751,-0.375,-0.3765,-0.3765,-0.377,-0.3776,-0.3779,-0.3759,-0.377,-0.376,-0.3744,-0.3741,-0.3738,-0.3735,-0.3728,-0.3725,-0.3759,-0.3759,-0.3759,0,-0.369,-0.3692,-0.3706,-0.3705,-0.3708,-0.3725,-0.3721,-0.3726,-0.3736,-0.3738,-0.3746,-0.3751,-0.3759,-0.3756,-0.375,-0.3753,-0.3752,-0.3759,-0.3737,-0.3735,-0.3733,-0.3726,-0.3723,-0.3757,-0.3757,-0.3758,-0.3758,0,-0.3671,-0.3672,-0.3668,-0.3676,-0.3679,-0.3676,-0.369,-0.3691,-0.37,-0.3709,-0.3707,-0.3717,-0.3722,-0.3722,-0.3731,-0.372,-0.3724,-0.3734,-0.3747,-0.3728,-0.3721,-0.3719,-0.3755,-0.3756,-0.3756,-0.3757,0,0,-0.3636,-0.3653,-0.3651,-0.3655,-0.3666,-0.3667,-0.3665,-0.367,-0.367,-0.3676,-0.3675,-0.3678,-0.3687,-0.3691,-0.3701,-0.3698,-0.3681,-0.3708,-0.3709,-0.3703,-0.3668,-0.3661,-0.3657,-0.3688,-0.3688,-0.3687,-0.3668,0,-0.3617,-0.3614,-0.3627,-0.3621,-0.3621,-0.3637,-0.3636,-0.3642,-0.365,-0.3652,-0.366,-0.3662,-0.3674,-0.3677,-0.3674,-0.3683,-0.3674,-0.3685,-0.3687,-0.3687,-0.3684,-0.3654,-0.3646,-0.3627,-0.3665,-0.3665,-0.3665,0,-0.3594,-0.3598,-0.3592,-0.3603,-0.3604,-0.3602,-0.3608,-0.3609,-0.3617,-0.3623,-0.3627,-0.3638,-0.3637,-0.3649,-0.3647,-0.3654,-0.3656,-0.366,-0.366,-0.3661,-0.3674,-0.3654,-0.3621,-0.3618,-0.3661,-0.3661,-0.3661,0,-0.3568,-0.3573,-0.357,-0.3573,-0.3586,-0.3584,-0.3589,-0.3598,-0.36,-0.3604,-0.3606,-0.361,-0.3613,-0.3616,-0.3628,-0.3636,-0.3625,-0.3638,-0.3629,-0.3629,-0.3626,-0.3626,-0.3593,-0.3627,-0.3627,-0.3627,-0.3628,0,-0.3545,-0.3541,-0.3559,-0.3557,-0.3552,-0.3566,-0.3561,-0.3568,-0.3575,-0.3575,-0.3589,-0.3589,-0.3605,-0.3606,-0.3615,-0.3612,-0.3613,-0.3618,-0.362,-0.3616,-0.3616,-0.3618,-0.3619,-0.3627,-0.3627,-0.3627,-0.3627,0,-0.3516,-0.3528,-0.3525,-0.3538,-0.3541,-0.3537,-0.3547,-0.3546,-0.3554,-0.3553,-0.3554,-0.3568,-0.3569,-0.3582,-0.3587,-0.3593,-0.3586,-0.3592,-0.3584,-0.3585,-0.3575,-0.3576,-0.3542,-0.3539,-0.3575,-0.3575,-0.3574,0,-0.3501,-0.3498,-0.3509,-0.351,-0.3515,-0.3515,-0.3518,-0.3531,-0.3533,-0.3541,-0.3538,-0.3541,-0.3545,-0.3547,-0.3557,-0.3561,-0.3566,-0.3554,-0.3567,-0.3563,-0.3566,-0.3566,-0.3565,-0.3551,-0.3551,-0.355,-0.355,0,-0.3472,-0.3478,-0.348,-0.3484,-0.3486,-0.349,-0.3495,-0.3494,-0.351,-0.3511,-0.3513,-0.3515,-0.3519,-0.3522,-0.3527,-0.3533,-0.3544,-0.3546,-0.3544,-0.354,-0.3535,-0.3538,-0.3576,-0.3547,-0.3547,-0.3547,-0.3548,-0.3548,-0.3449,-0.3447,-0.3455,-0.3457,-0.3461,-0.3466,-0.3465,-0.3473,-0.3475,-0.3479,-0.3487,-0.3488,-0.3495,-0.3504,-0.3508,-0.3509,-0.3515,-0.3513,-0.3512,-0.3511,-0.3509,-0.3535,-0.351,-0.351,-0.351,-0.351,-0.351,0,-0.3421,-0.3426,-0.3428,-0.3434,-0.3435,-0.3445,-0.3451,-0.3452,-0.3452,-0.3458,-0.346,-0.3462,-0.3465,-0.3475,-0.3479,-0.3477,-0.3482,-0.3478,-0.3478,-0.3479,-0.3503,-0.3504,-0.3473,-0.3474,-0.3474,-0.3474,-0.3474,-0.3474,-0.3406,-0.3403,-0.3409,-0.3408,-0.3414,-0.3415,-0.3417,-0.3421,-0.3426,-0.3427,-0.3429,-0.3436,-0.3443,-0.3447,-0.345,-0.3453,-0.3453,-0.3447,-0.3452,-0.3474,-0.3477,-0.3481,-0.3482,-0.3447,-0.3447,-0.3428,-0.3427,-0.3427]}]]